Regional Weather Roundup
Issued by NWS

Home | Current Version | Previous Version | Graphics & Text | Print | Product List | Glossary On
Versions: 1 2 3 4 5 6 7 8 9 10 11 12 13 14 15 16 17 18 19 20 21 22 23 24 25 26 27 28 29 30 31 32 33 34 35 36 37 38 39 40 41 42 43 44 45 46 47 48 49 50
000
ASUS43 KOAX 261902
RWRNE

WEATHER ROUNDUP FOR NEBRASKA
NATIONAL WEATHER SERVICE OMAHA NE
100 PM CST SUN FEB 26 2017

NOTES: SATELLITE DATA IS BEING USED TO AUGMENT CLOUD COVER ABOVE
       12000 FEET.
       "FAIR" INDICATES FEW OR NO CLOUDS BELOW 12,000 FEET WITH NO
       SIGNIFICANT WEATHER AND/OR OBSTRUCTIONS TO VISIBILITY.

  * THESE STATIONS DO NOT REPORT WEATHER SUCH AS RAIN...SNOW OR FOG.

NEZ001>004-019>022-054>056-262000-
NEBRASKA PANHANDLE

CITY           SKY/WX    TMP DP  RH WIND       PRES   REMARKS
SCOTTSBLUFF    SUNNY     30  13  49 W9        29.85F WCI  22
ALLIANCE       SUNNY     25  14  63 W17       29.84S WCI  12
CHADRON        SUNNY     24   7  48 W8        29.85F WCI  15
KIMBALL        SUNNY     32  12  43 W12       29.83S WCI  23
SIDNEY         SUNNY     32  11  41 NW17      29.85F WCI  21
$$

NEZ057>060-069>072-079>082-262000-
SOUTHWEST NEBRASKA

CITY           SKY/WX    TMP DP  RH WIND       PRES   REMARKS
NORTH PLATTE   SUNNY     37  14  38 W14       29.91S WCI  28
IMPERIAL       SUNNY     38  10  31 NW16G24   29.89F WCI  29
LEXINGTON      SUNNY     38  15  38 NW12G20   29.91F WCI  31
MCCOOK         SUNNY     43   8  23 NW23G29   29.91F
OGALLALA       SUNNY     35  15  44 NW16      29.89F WCI  25
$$

NEZ005>010-023>029-035>040-094-262000-
NORTH CENTRAL NEBRASKA

CITY           SKY/WX    TMP DP  RH WIND       PRES   REMARKS
VALENTINE      SUNNY     28  14  55 W9        29.85F WCI  19
AINSWORTH      SUNNY     31  19  60 W8        29.86F WCI  24
BROKEN BOW     SUNNY     33  18  53 W7        29.89F WCI  27
O`NEILL        SUNNY     33  17  51 SW6       29.89F WCI  27
ORD            SUNNY     34  16  47 CALM      29.90F
THEDFORD       SUNNY     31  16  53 W12       29.87F WCI  22
$$

NEZ041-046>049-061>064-073>077-083>087-262000-
SOUTH CENTRAL NEBRASKA

CITY           SKY/WX    TMP DP  RH WIND       PRES   REMARKS
GRAND ISLAND   SUNNY     40  22  48 NW6       29.93F
AURORA         SUNNY     40  22  49 CALM      29.93S
HASTINGS       SUNNY     43  14  31 W13       29.93F
HEBRON         SUNNY     46  13  26 W9        29.93F
HOLDREGE       SUNNY     41   9  27 W13G18    29.91F
KEARNEY *      SUNNY     39  12  33 W10G16    29.92F WCI  32
YORK           SUNNY     39  25  56 SW3       29.94F
$$

NEZ011>018-030>034-042>045-262000-
NORTHEAST NEBRASKA

CITY           SKY/WX    TMP DP  RH WIND       PRES   REMARKS
NORFOLK        SUNNY     32  19  58 S9        29.91F WCI  24
ALBION         SUNNY     36  20  51 CALM      29.92S
BLAIR          SUNNY     37  25  63 W6        29.94F WCI  32
FREMONT        SUNNY     37  23  57 NW6       29.96S WCI  32
TEKAMAH        SUNNY     33  20  58 SW3       29.95F
WAYNE          SUNNY     33  23  68 W7        29.92S WCI  26
$$

NEZ050>053-065>068-078-088>093-262000-
SOUTHEAST NEBRASKA

CITY           SKY/WX    TMP DP  RH WIND       PRES   REMARKS
LINCOLN        SUNNY     42  23  46 W6        29.97F
OMAHA EPPLEY   MOSUNNY   41  21  44 NW8       29.95F
BEATRICE       SUNNY     49  21  32 W16G25    29.93F
FALLS CITY     MOSUNNY   52  25  35 SW12G22   29.93F
NEBRASKA CITY  SUNNY     48  17  28 W17       29.94F
PLATTSMOUTH    SUNNY     42  21  42 W13       29.94F
$$

NEZ044-045-051>053-067-262000-
OMAHA AREA

CITY           SKY/WX    TMP DP  RH WIND       PRES   REMARKS
OMAHA EPPLEY   MOSUNNY   41  21  44 NW8       29.95F
BLAIR          SUNNY     37  25  63 W6        29.94F WCI  32
FREMONT        SUNNY     37  23  57 NW6       29.96S WCI  32
MILLARD        SUNNY     41  22  47 W8        29.96S
OFFUTT AFB     SUNNY     42  22  45 W10       29.95F
PLATTSMOUTH    SUNNY     42  21  42 W13       29.94F
WAHOO          FAIR      38  22  52 W3        29.95F
$$




USA.gov is the U.S. government's official web portal to all federal, state and local government web resources and services.